| time (UTC) | temp C | wind direction | speed KPH | gust KPH | rain 1hr cm | rain 24hr cm | rain mn cm | humidity % | barometer mb |
| 20260505114554 | 9 | 73 | 0.0 | 1.6 | 0.00 | 0.00 | 0.00 | 87 | 1032.0 |
| 20260505114050 | 9 | 66 | 1.6 | 1.6 | 0.00 | 0.00 | 0.00 | 88 | 1031.8 |
| 20260505113547 | 10 | 66 | 0.0 | 0.0 | 0.00 | 0.00 | 0.00 | 88 | 1031.7 |
| 20260505113043 | 10 | 124 | 0.0 | 0.0 | 0.00 | 0.00 | 0.00 | 91 | 1031.9 |
| 20260505112540 | 9 | 138 | 0.0 | 0.0 | 0.00 | 0.00 | 0.00 | 93 | 1031.8 |
| 20260505112039 | 8 | 0 | 1.6 | 1.6 | 0.00 | 0.00 | 0.00 | 94 | 1031.6 |
| 20260505111538 | 8 | 359 | 0.0 | 0.0 | 0.00 | 0.00 | 0.00 | 95 | 1031.9 |
| 20260505111034 | 7 | 0 | 1.6 | 1.6 | 0.00 | 0.00 | 0.00 | 96 | 1031.8 |
| 20260505110531 | 7 | 345 | 0.0 | 3.2 | 0.00 | 0.00 | 0.00 | 96 | 1031.8 |
| 20260505102003 | 7 | 210 | 0.0 | 1.6 | 0.00 | 0.00 | 0.00 | 95 | 1031.3 |
| 20260505101501 | 7 | 214 | 1.6 | 1.6 | 0.00 | 0.00 | 0.00 | 95 | 1031.2 |
| 20260505100957 | 7 | 200 | 1.6 | 3.2 | 0.00 | 0.00 | 0.00 | 94 | 1031.2 |
| 20260505100455 | 7 | 344 | 0.0 | 0.0 | 0.00 | 0.00 | 0.00 | 94 | 1030.9 |
| 20260505095951 | 7 | 344 | 0.0 | 0.0 | 0.00 | 0.00 | 0.00 | 94 | 1031.3 |
| 20260505095447 | 7 | 344 | 0.0 | 0.0 | 0.00 | 0.00 | 0.00 | 94 | 1031.2 |
| 20260505094943 | 7 | 359 | 0.0 | 1.6 | 0.00 | 0.00 | 0.00 | 93 | 1030.9 |
| 20260505094441 | 7 | 166 | 0.0 | 0.0 | 0.00 | 0.00 | 0.00 | 93 | 1030.9 |
| 20260505093936 | 7 | 193 | 1.6 | 3.2 | 0.00 | 0.00 | 0.00 | 93 | 1030.9 |
| 20260505093433 | 7 | 193 | 0.0 | 0.0 | 0.00 | 0.00 | 0.00 | 93 | 1030.9 |
| 20260505092931 | 8 | 351 | 0.0 | 1.6 | 0.00 | 0.00 | 0.00 | 93 | 1031.0 |
| 20260505092428 | 7 | 324 | 0.0 | 1.6 | 0.00 | 0.00 | 0.00 | 93 | 1030.9 |
| 20260505091926 | 7 | 327 | 0.0 | 3.2 | 0.00 | 0.00 | 0.00 | 93 | 1031.0 |
| 20260505091423 | 7 | 335 | 1.6 | 3.2 | 0.00 | 0.00 | 0.00 | 93 | 1030.9 |
| 20260505090921 | 7 | 27 | 0.0 | 1.6 | 0.00 | 0.00 | 0.00 | 93 | 1030.9 |
| 20260505090419 | 7 | 26 | 0.0 | 1.6 | 0.00 | 0.00 | 0.00 | 93 | 1030.8 |
| 20260505085916 | 7 | 30 | 1.6 | 1.6 | 0.00 | 0.00 | 0.00 | 93 | 1031.2 |
| 20260505085414 | 7 | 216 | 0.0 | 1.6 | 0.00 | 0.00 | 0.00 | 92 | 1031.0 |
| 20260505084912 | 7 | 217 | 0.0 | 0.0 | 0.00 | 0.00 | 0.00 | 92 | 1031.0 |
| 20260505084410 | 7 | 216 | 0.0 | 0.0 | 0.00 | 0.00 | 0.00 | 92 | 1031.2 |
| 20260505083908 | 7 | 216 | 0.0 | 0.0 | 0.00 | 0.00 | 0.00 | 92 | 1031.0 |
| 20260505083405 | 8 | 216 | 0.0 | 0.0 | 0.00 | 0.00 | 0.00 | 92 | 1031.0 |
| 20260505082901 | 8 | 216 | 0.0 | 0.0 | 0.00 | 0.00 | 0.00 | 92 | 1030.8 |
| 20260505082357 | 8 | 217 | 1.6 | 1.6 | 0.00 | 0.00 | 0.00 | 92 | 1031.0 |
| 20260505081854 | 8 | 237 | 0.0 | 0.0 | 0.00 | 0.00 | 0.00 | 92 | 1031.0 |
| 20260505081350 | 8 | 220 | 0.0 | 0.0 | 0.00 | 0.00 | 0.00 | 92 | 1031.0 |
| 20260505080847 | 8 | 220 | 1.6 | 1.6 | 0.00 | 0.00 | 0.00 | 91 | 1030.8 |
| 20260505080343 | 8 | 199 | 3.2 | 3.2 | 0.00 | 0.00 | 0.00 | 91 | 1030.8 |
| 20260505075839 | 8 | 200 | 3.2 | 3.2 | 0.00 | 0.00 | 0.00 | 90 | 1030.8 |
| 20260505075336 | 8 | 209 | 3.2 | 3.2 | 0.00 | 0.00 | 0.00 | 89 | 1030.6 |
| 20260505074833 | 8 | 217 | 0.0 | 0.0 | 0.00 | 0.00 | 0.00 | 88 | 1030.7 |
| 20260505074330 | 8 | 218 | 0.0 | 0.0 | 0.00 | 0.00 | 0.00 | 88 | 1030.6 |
| 20260505073828 | 8 | 217 | 0.0 | 0.0 | 0.00 | 0.00 | 0.00 | 87 | 1030.6 |
| 20260505073326 | 8 | 217 | 0.0 | 0.0 | 0.00 | 0.00 | 0.00 | 87 | 1030.7 |
| 20260505072822 | 8 | 217 | 0.0 | 0.0 | 0.00 | 0.00 | 0.00 | 86 | 1030.5 |
| 20260505072318 | 9 | 217 | 0.0 | 0.0 | 0.00 | 0.00 | 0.00 | 86 | 1030.4 |
| 20260505071814 | 9 | 218 | 0.0 | 0.0 | 0.00 | 0.00 | 0.00 | 85 | 1030.3 |
| 20260505071311 | 9 | 218 | 0.0 | 0.0 | 0.00 | 0.00 | 0.00 | 85 | 1030.4 |
| 20260505070809 | 9 | 218 | 0.0 | 0.0 | 0.00 | 0.00 | 0.00 | 84 | 1030.2 |
| 20260505070305 | 9 | 217 | 0.0 | 1.6 | 0.00 | 0.00 | 0.00 | 84 | 1030.2 |
| 20260505065800 | 9 | 234 | 0.0 | 3.2 | 0.00 | 0.00 | 0.00 | 84 | 1030.2 |
| 20260505065258 | 10 | 194 | 0.0 | 1.6 | 0.00 | 0.00 | 0.00 | 83 | 1030.2 |
| 20260505064754 | 10 | 156 | 1.6 | 1.6 | 0.00 | 0.00 | 0.00 | 82 | 1030.3 |
| 20260505064252 | 10 | 96 | 0.0 | 1.6 | 0.00 | 0.00 | 0.00 | 82 | 1030.1 |
| 20260505063749 | 10 | 221 | 0.0 | 0.0 | 0.00 | 0.00 | 0.00 | 81 | 1030.1 |
| 20260505063246 | 10 | 221 | 1.6 | 1.6 | 0.00 | 0.00 | 0.00 | 80 | 1030.1 |
| 20260505062742 | 10 | 222 | 0.0 | 0.0 | 0.00 | 0.00 | 0.00 | 80 | 1030.2 |
| 20260505062240 | 10 | 222 | 0.0 | 0.0 | 0.00 | 0.00 | 0.00 | 79 | 1030.2 |
| 20260505061736 | 10 | 222 | 0.0 | 0.0 | 0.00 | 0.00 | 0.00 | 79 | 1029.9 |
| 20260505061234 | 10 | 221 | 0.0 | 3.2 | 0.00 | 0.00 | 0.00 | 79 | 1030.1 |
| 20260505060731 | 10 | 183 | 1.6 | 3.2 | 0.00 | 0.00 | 0.00 | 80 | 1030.0 |
| 20260505060229 | 10 | 255 | 0.0 | 1.6 | 0.00 | 0.00 | 0.00 | 80 | 1030.0 |
| 20260505055724 | 10 | 181 | 0.0 | 1.6 | 0.00 | 0.00 | 0.00 | 79 | 1029.7 |
| 20260505055220 | 11 | 193 | 1.6 | 1.6 | 0.00 | 0.00 | 0.00 | 78 | 1030.0 |
| 20260505054718 | 11 | 186 | 0.0 | 0.0 | 0.00 | 0.00 | 0.00 | 77 | 1030.0 |
| 20260505054216 | 11 | 104 | 0.0 | 0.0 | 0.00 | 0.00 | 0.00 | 76 | 1029.9 |
| 20260505053714 | 11 | 348 | 0.0 | 0.0 | 0.00 | 0.00 | 0.00 | 76 | 1029.9 |
| 20260505053209 | 11 | 348 | 0.0 | 0.0 | 0.00 | 0.00 | 0.00 | 75 | 1029.8 |
| 20260505052707 | 11 | 348 | 0.0 | 0.0 | 0.00 | 0.00 | 0.00 | 74 | 1029.8 |
| 20260505052204 | 11 | 348 | 0.0 | 0.0 | 0.00 | 0.00 | 0.00 | 74 | 1029.8 |
| 20260505051701 | 11 | 347 | 0.0 | 0.0 | 0.00 | 0.00 | 0.00 | 74 | 1029.6 |
| 20260505051159 | 11 | 348 | 0.0 | 0.0 | 0.00 | 0.00 | 0.00 | 74 | 1029.8 |
| 20260505050658 | 11 | 348 | 0.0 | 0.0 | 0.00 | 0.00 | 0.00 | 73 | 1029.7 |
| 20260505050156 | 11 | 348 | 0.0 | 0.0 | 0.00 | 0.00 | 0.00 | 74 | 1029.6 |
| 20260505041630 | 12 | 159 | 0.0 | 0.0 | 0.00 | 0.00 | 0.00 | 71 | 1029.2 |
| 20260505041128 | 12 | 159 | 0.0 | 0.0 | 0.00 | 0.00 | 0.00 | 69 | 1029.2 |
| 20260505040624 | 12 | 160 | 0.0 | 0.0 | 0.00 | 0.00 | 0.00 | 69 | 1029.2 |
| 20260505040122 | 12 | 205 | 1.6 | 1.6 | 0.00 | 0.00 | 0.00 | 69 | 1029.2 |
| 20260505035618 | 12 | 231 | 1.6 | 1.6 | 0.00 | 0.00 | 0.00 | 69 | 1029.2 |
| 20260505035114 | 13 | 211 | 1.6 | 1.6 | 0.00 | 0.00 | 0.00 | 68 | 1029.4 |
| 20260505034611 | 13 | 209 | 0.0 | 1.6 | 0.00 | 0.00 | 0.00 | 67 | 1029.4 |
| 20260505034108 | 13 | 115 | 1.6 | 1.6 | 0.00 | 0.00 | 0.00 | 66 | 1029.4 |
| 20260505033605 | 13 | 121 | 0.0 | 0.0 | 0.00 | 0.00 | 0.00 | 65 | 1029.4 |
| 20260505033104 | 13 | 238 | 0.0 | 0.0 | 0.00 | 0.00 | 0.00 | 65 | 1029.3 |
| 20260505032601 | 14 | 239 | 0.0 | 0.0 | 0.00 | 0.00 | 0.00 | 63 | 1029.3 |
| 20260505032057 | 14 | 239 | 0.0 | 0.0 | 0.00 | 0.00 | 0.00 | 63 | 1029.7 |
| 20260505031555 | 14 | 240 | 0.0 | 0.0 | 0.00 | 0.00 | 0.00 | 63 | 1029.7 |
| 20260505031051 | 13 | 219 | 0.0 | 0.0 | 0.00 | 0.00 | 0.00 | 63 | 1029.8 |
| 20260505030548 | 14 | 204 | 0.0 | 0.0 | 0.00 | 0.00 | 0.00 | 62 | 1029.7 |
| 20260505030044 | 14 | 204 | 0.0 | 0.0 | 0.00 | 0.00 | 0.00 | 62 | 1029.7 |
| 20260505025539 | 14 | 204 | 0.0 | 0.0 | 0.00 | 0.00 | 0.00 | 62 | 1029.7 |
| 20260505025039 | 14 | 204 | 0.0 | 0.0 | 0.00 | 0.00 | 0.00 | 61 | 1029.6 |
| 20260505024535 | 14 | 204 | 0.0 | 0.0 | 0.00 | 0.00 | 0.00 | 61 | 1029.7 |
| 20260505024032 | 15 | 205 | 0.0 | 0.0 | 0.00 | 0.00 | 0.00 | 60 | 1029.6 |
| 20260505023529 | 15 | 205 | 0.0 | 0.0 | 0.00 | 0.00 | 0.00 | 60 | 1029.8 |
| 20260505023027 | 15 | 151 | 0.0 | 0.0 | 0.00 | 0.00 | 0.00 | 60 | 1029.7 |
| 20260505022524 | 15 | 243 | 0.0 | 1.6 | 0.00 | 0.00 | 0.00 | 60 | 1029.4 |
| 20260505022021 | 15 | 209 | 0.0 | 0.0 | 0.00 | 0.00 | 0.00 | 59 | 1029.7 |
| 20260505021518 | 15 | 219 | 0.0 | 0.0 | 0.00 | 0.00 | 0.00 | 58 | 1029.7 |
| 20260505021015 | 15 | 201 | 0.0 | 0.0 | 0.00 | 0.00 | 0.00 | 59 | 1029.3 |
| 20260505020514 | 15 | 227 | 1.6 | 3.2 | 0.00 | 0.00 | 0.00 | 58 | 1029.6 |
| 20260505020012 | 15 | 216 | 0.0 | 0.0 | 0.00 | 0.00 | 0.00 | 56 | 1029.3 |
| 20260505015509 | 16 | 217 | 0.0 | 0.0 | 0.00 | 0.00 | 0.00 | 56 | 1029.4 |
| 20260505015006 | -17 | 0.0 | 0.0 | 0.00 | 0.00 | 0.00 | 1029.7 | ||
| 20260505014503 | -17 | 0.0 | 0.0 | 0.00 | 0.00 | 0.00 | 1029.7 | ||
| 20260505014000 | 17 | 222 | 0.0 | 0.0 | 0.00 | 0.00 | 0.00 | 49 | 1029.6 |
| 20260505013457 | 17 | 222 | 0.0 | 0.0 | 0.00 | 0.00 | 0.00 | 49 | 1029.6 |
| 20260505012954 | 17 | 222 | 0.0 | 0.0 | 0.00 | 0.00 | 0.00 | 49 | 1029.6 |
| 20260505012452 | 17 | 222 | 0.0 | 0.0 | 0.00 | 0.00 | 0.00 | 49 | 1029.3 |
| 20260505011949 | 17 | 222 | 0.0 | 0.0 | 0.00 | 0.00 | 0.00 | 48 | 1029.2 |
| 20260505011444 | 17 | 223 | 0.0 | 0.0 | 0.00 | 0.00 | 0.00 | 47 | 1029.4 |
| 20260505010942 | 18 | 222 | 0.0 | 0.0 | 0.00 | 0.00 | 0.00 | 46 | 1029.2 |
| 20260505010437 | 18 | 222 | 0.0 | 0.0 | 0.00 | 0.00 | 0.00 | 46 | 1029.3 |
| 20260505005933 | 18 | 222 | 0.0 | 0.0 | 0.00 | 0.00 | 0.00 | 45 | 1029.1 |
| 20260505005430 | 18 | 222 | 0.0 | 0.0 | 0.00 | 0.00 | 0.00 | 44 | 1029.0 |
| 20260505004928 | 19 | 190 | 0.0 | 1.6 | 0.00 | 0.00 | 0.00 | 43 | 1028.9 |
| 20260505004424 | 19 | 217 | 1.6 | 3.2 | 0.00 | 0.00 | 0.00 | 42 | 1028.9 |
| 20260505003921 | 20 | 231 | 0.0 | 1.6 | 0.00 | 0.00 | 0.00 | 42 | 1028.8 |
| 20260505003419 | 20 | 227 | 1.6 | 4.8 | 0.00 | 0.00 | 0.00 | 41 | 1028.7 |
| 20260505002915 | 20 | 230 | 3.2 | 3.2 | 0.00 | 0.00 | 0.00 | 40 | 1028.9 |
| 20260505002411 | 20 | 234 | 3.2 | 4.8 | 0.00 | 0.00 | 0.00 | 40 | 1028.7 |
| 20260505001910 | 20 | 219 | 3.2 | 4.8 | 0.00 | 0.00 | 0.00 | 40 | 1028.9 |
| 20260505001407 | 20 | 251 | 4.8 | 11.3 | 0.00 | 0.00 | 0.00 | 39 | 1029.0 |
| 20260505000904 | 20 | 207 | 8.0 | 11.3 | 0.00 | 0.00 | 0.00 | 39 | 1028.7 |
| 20260505000402 | 21 | 232 | 4.8 | 4.8 | 0.00 | 0.00 | 0.00 | 41 | 1028.8 |
| 20260504235858 | 21 | 244 | 8.0 | 11.3 | 0.00 | 0.00 | 0.00 | 40 | 1028.7 |
| 20260504235355 | 21 | 228 | 1.6 | 4.8 | 0.00 | 0.00 | 0.00 | 40 | 1028.7 |
| 20260504234851 | 21 | 221 | 3.2 | 9.7 | 0.00 | 0.00 | 0.00 | 39 | 1028.7 |
| 20260504234349 | 22 | 233 | 8.0 | 12.9 | 0.00 | 0.00 | 0.00 | 37 | 1028.6 |
| 20260504233846 | 22 | 228 | 4.8 | 11.3 | 0.00 | 0.00 | 0.00 | 37 | 1028.4 |
| 20260504233341 | 22 | 221 | 8.0 | 11.3 | 0.00 | 0.00 | 0.00 | 36 | 1028.5 |
| 20260504232838 | 22 | 209 | 14.5 | 20.9 | 0.00 | 0.00 | 0.00 | 36 | 1028.4 |
| 20260504232336 | 22 | 250 | 6.4 | 14.5 | 0.00 | 0.00 | 0.00 | 37 | 1028.5 |
| 20260504231832 | 22 | 244 | 3.2 | 11.3 | 0.00 | 0.00 | 0.00 | 37 | 1028.5 |
| 20260504231329 | 22 | 202 | 6.4 | 6.4 | 0.00 | 0.00 | 0.00 | 37 | 1028.4 |
| 20260504230825 | 22 | 240 | 4.8 | 12.9 | 0.00 | 0.00 | 0.00 | 37 | 1028.2 |
| 20260504230323 | 22 | 229 | 9.7 | 16.1 | 0.00 | 0.00 | 0.00 | 36 | 1028.5 |
| 20260504225822 | 22 | 249 | 11.3 | 16.1 | 0.00 | 0.00 | 0.00 | 37 | 1028.6 |
| 20260504225317 | 23 | 214 | 3.2 | 9.7 | 0.00 | 0.00 | 0.00 | 37 | 1028.5 |
| 20260504224815 | 23 | 184 | 3.2 | 9.7 | 0.00 | 0.00 | 0.00 | 38 | 1028.6 |
| 20260504224312 | 23 | 232 | 6.4 | 11.3 | 0.00 | 0.00 | 0.00 | 37 | 1028.5 |
| 20260504223808 | 23 | 238 | 6.4 | 9.7 | 0.00 | 0.00 | 0.00 | 38 | 1028.6 |
| 20260504223304 | 23 | 218 | 4.8 | 9.7 | 0.00 | 0.00 | 0.00 | 37 | 1028.5 |
| 20260504222801 | 23 | 167 | 3.2 | 4.8 | 0.00 | 0.00 | 0.00 | 38 | 1028.7 |
| 20260504222258 | 23 | 212 | 9.7 | 14.5 | 0.00 | 0.00 | 0.00 | 37 | 1028.9 |
| 20260504221755 | 23 | 226 | 11.3 | 20.9 | 0.00 | 0.00 | 0.00 | 37 | 1028.6 |
| 20260504221253 | 23 | 276 | 6.4 | 14.5 | 0.00 | 0.00 | 0.00 | 36 | 1028.6 |
| 20260504220749 | 23 | 209 | 8.0 | 12.9 | 0.00 | 0.00 | 0.00 | 36 | 1028.7 |
| 20260504220246 | 23 | 233 | 6.4 | 20.9 | 0.00 | 0.00 | 0.00 | 36 | 1028.6 |
| 20260504215743 | 23 | 239 | 1.6 | 6.4 | 0.00 | 0.00 | 0.00 | 36 | 1028.5 |
| 20260504215240 | 22 | 245 | 6.4 | 12.9 | 0.00 | 0.00 | 0.00 | 35 | 1028.8 |
| 20260504214736 | 23 | 251 | 8.0 | 16.1 | 0.00 | 0.00 | 0.00 | 35 | 1028.7 |
| 20260504214232 | 23 | 240 | 4.8 | 17.7 | 0.00 | 0.00 | 0.00 | 37 | 1028.6 |
| 20260504213729 | 23 | 240 | 4.8 | 6.4 | 0.00 | 0.00 | 0.00 | 39 | 1028.7 |
| 20260504213226 | 23 | 221 | 4.8 | 9.7 | 0.00 | 0.00 | 0.00 | 37 | 1028.7 |
| 20260504212723 | 23 | 270 | 4.8 | 17.7 | 0.00 | 0.00 | 0.00 | 39 | 1028.5 |
| 20260504212219 | 23 | 234 | 6.4 | 9.7 | 0.00 | 0.00 | 0.00 | 39 | 1028.6 |
| 20260504211717 | 23 | 226 | 8.0 | 11.3 | 0.00 | 0.00 | 0.00 | 38 | 1028.7 |
| 20260504211213 | 23 | 184 | 8.0 | 14.5 | 0.00 | 0.00 | 0.00 | 39 | 1028.8 |
| 20260504210711 | 24 | 203 | 3.2 | 12.9 | 0.00 | 0.00 | 0.00 | 37 | 1028.8 |
| 20260504210207 | 24 | 263 | 3.2 | 4.8 | 0.00 | 0.00 | 0.00 | 40 | 1028.5 |
| 20260504205704 | 24 | 230 | 6.4 | 11.3 | 0.00 | 0.00 | 0.00 | 39 | 1028.7 |
| 20260504205201 | 23 | 218 | 4.8 | 4.8 | 0.00 | 0.00 | 0.00 | 40 | 1028.7 |
| 20260504204700 | 23 | 217 | 4.8 | 6.4 | 0.00 | 0.00 | 0.00 | 39 | 1028.7 |
| 20260504204158 | 23 | 221 | 3.2 | 12.9 | 0.00 | 0.00 | 0.00 | 40 | 1028.6 |
| 20260504203657 | 23 | 120 | 8.0 | 20.9 | 0.00 | 0.00 | 0.00 | 40 | 1028.8 |
| 20260504203154 | 23 | 181 | 9.7 | 17.7 | 0.00 | 0.00 | 0.00 | 39 | 1028.7 |
| 20260504202654 | 24 | 135 | 4.8 | 9.7 | 0.00 | 0.00 | 0.00 | 39 | 1028.8 |
| 20260504202152 | 24 | 241 | 1.6 | 3.2 | 0.00 | 0.00 | 0.00 | 40 | 1028.9 |
| 20260504201648 | 23 | 213 | 4.8 | 12.9 | 0.00 | 0.00 | 0.00 | 39 | 1028.9 |
| 20260504201146 | 23 | 251 | 1.6 | 6.4 | 0.00 | 0.00 | 0.00 | 40 | 1028.9 |
| 20260504200643 | 23 | 241 | 4.8 | 11.3 | 0.00 | 0.00 | 0.00 | 40 | 1029.0 |
| 20260504200140 | 23 | 180 | 6.4 | 11.3 | 0.00 | 0.00 | 0.00 | 43 | 1029.0 |
| 20260504195635 | 22 | 157 | 4.8 | 12.9 | 0.00 | 0.00 | 0.00 | 41 | 1029.0 |
| 20260504195132 | 22 | 229 | 3.2 | 11.3 | 0.00 | 0.00 | 0.00 | 44 | 1029.1 |
| 20260504194629 | 21 | 265 | 4.8 | 9.7 | 0.00 | 0.00 | 0.00 | 45 | 1029.2 |
| 20260504194125 | 22 | 123 | 3.2 | 4.8 | 0.00 | 0.00 | 0.00 | 45 | 1029.3 |
| 20260504193621 | 22 | 208 | 1.6 | 4.8 | 0.00 | 0.00 | 0.00 | 47 | 1029.3 |
| 20260504193120 | 21 | 217 | 3.2 | 9.7 | 0.00 | 0.00 | 0.00 | 47 | 1029.4 |
| 20260504192617 | 20 | 218 | 1.6 | 3.2 | 0.00 | 0.00 | 0.00 | 50 | 1029.4 |
| 20260504192115 | 20 | 263 | 6.4 | 12.9 | 0.00 | 0.00 | 0.00 | 48 | 1030.2 |
| 20260504191614 | 20 | 231 | 1.6 | 9.7 | 0.00 | 0.00 | 0.00 | 47 | 1030.0 |
| 20260504191109 | 20 | 251 | 6.4 | 17.7 | 0.00 | 0.00 | 0.00 | 47 | 1030.0 |
| 20260504190606 | 21 | 240 | 4.8 | 11.3 | 0.00 | 0.00 | 0.00 | 47 | 1030.1 |
| 20260504185559 | 21 | 231 | 8.0 | 16.1 | 0.00 | 0.00 | 0.00 | 46 | 1030.2 |
| 20260504185055 | 21 | 254 | 1.6 | 12.9 | 0.00 | 0.00 | 0.00 | 45 | 1030.0 |
| 20260504184551 | 21 | 158 | 3.2 | 11.3 | 0.00 | 0.00 | 0.00 | 45 | 1030.2 |
| 20260504184046 | 21 | 215 | 8.0 | 12.9 | 0.00 | 0.00 | 0.00 | 46 | 1030.4 |
| 20260504183544 | 21 | 173 | 6.4 | 12.9 | 0.00 | 0.00 | 0.00 | 45 | 1030.6 |
| 20260504183042 | 21 | 259 | 6.4 | 6.4 | 0.00 | 0.00 | 0.00 | 47 | 1030.3 |
| 20260504182538 | 20 | 258 | 4.8 | 12.9 | 0.00 | 0.00 | 0.00 | 47 | 1030.3 |
| 20260504182036 | 21 | 237 | 3.2 | 11.3 | 0.00 | 0.00 | 0.00 | 45 | 1030.6 |
| 20260504181533 | 20 | 214 | 4.8 | 6.4 | 0.00 | 0.00 | 0.00 | 46 | 1030.5 |
| 20260504181031 | 21 | 41 | 3.2 | 4.8 | 0.00 | 0.00 | 0.00 | 48 | 1030.3 |
| 20260504180530 | 20 | 276 | 4.8 | 6.4 | 0.00 | 0.00 | 0.00 | 47 | 1030.6 |
| 20260504180028 | 19 | 227 | 4.8 | 11.3 | 0.00 | 0.00 | 0.00 | 49 | 1030.5 |
| 20260504175525 | 19 | 219 | 4.8 | 12.9 | 0.00 | 0.00 | 0.00 | 48 | 1030.7 |
| 20260504175022 | 18 | 176 | 1.6 | 3.2 | 0.00 | 0.00 | 0.00 | 49 | 1030.7 |
| 20260504174520 | 18 | 234 | 4.8 | 6.4 | 0.00 | 0.00 | 0.00 | 48 | 1030.5 |
| 20260504174016 | 18 | 196 | 3.2 | 6.4 | 0.00 | 0.00 | 0.00 | 50 | 1030.9 |
| 20260504173513 | 18 | 203 | 6.4 | 9.7 | 0.00 | 0.00 | 0.00 | 51 | 1030.6 |
| 20260504173011 | 18 | 233 | 4.8 | 12.9 | 0.00 | 0.00 | 0.00 | 50 | 1031.0 |
| 20260504172506 | 18 | 230 | 4.8 | 6.4 | 0.00 | 0.00 | 0.00 | 50 | 1031.0 |
| 20260504172003 | 19 | 251 | 4.8 | 12.9 | 0.00 | 0.00 | 0.00 | 48 | 1031.5 |
| 20260504171500 | 18 | 243 | 4.8 | 12.9 | 0.00 | 0.00 | 0.00 | 50 | 1031.5 |
| 20260504170957 | 19 | 220 | 8.0 | 17.7 | 0.00 | 0.00 | 0.00 | 48 | 1031.6 |
| 20260504170453 | 20 | 273 | 3.2 | 9.7 | 0.00 | 0.00 | 0.00 | 48 | 1031.6 |
| 20260504160413 | 19 | 169 | 6.4 | 9.7 | 0.00 | 0.00 | 0.00 | 47 | 1032.0 |
| 20260504150837 | 16 | 209 | 11.3 | 16.1 | 0.00 | 0.00 | 0.00 | 51 | 1032.4 |
| 20260504150333 | 16 | 249 | 4.8 | 6.4 | 0.00 | 0.00 | 0.00 | 51 | 1032.4 |
| 20260504141304 | 16 | 174 | 4.8 | 6.4 | 0.00 | 0.00 | 0.00 | 52 | 1032.8 |
| 20260504140800 | 15 | 148 | 3.2 | 6.4 | 0.00 | 0.00 | 0.00 | 55 | 1032.9 |
| 20260504140256 | 15 | 48 | 1.6 | 1.6 | 0.00 | 0.00 | 0.00 | 56 | 1033.1 |
| 20260504130725 | 11 | 50 | 3.2 | 3.2 | 0.00 | 0.00 | 0.00 | 66 | 1033.2 |
| 20260504130220 | 10 | 61 | 1.6 | 3.2 | 0.00 | 0.00 | 0.00 | 68 | 1033.2 |
| 20260504120144 | 7 | 31 | 0.0 | 1.6 | 0.00 | 0.00 | 0.00 | 77 | 1032.7 |